Location: Hilton Head Island
(32.2163°N, 80.7526°W)
Time: 03:41:53
(UTC-04:00)

Transit 2A Rocket - Pass Details

Date: 15 February 2026
Orbit: 583 x 900 km, 66.7° (Epoch: 8 March)

Event Time Altitude Azimuth Distance (km) Brightness Sun altitude
Rises 03:04:45 0° 325° (NW) 3,283 - -51.0°
Reaches altitude 10° 03:07:24 10° 317° (NW) 2,297 - -50.4°
Maximum altitude 03:12:10 37° 252° (WSW) 1,104 - -49.5°
Drops below altitude 10° 03:16:32 10° 185° (S) 2,093 - -48.6°
Sets 03:18:52 0° 176° (S) 2,955 - -48.2°
